sat.trackr.live / text

‹ back to catalog

STARLINK-3774

NORAD 52680 · 2022-053AA

PAYLOAD ACTIVE UNKNOWN

§ Identity

Operator
Country
US
Launch date
2022-05-18
Launch site
AFETR
Launch vehicle
Mass (kg)
RCS (m²)

Purposes: comms

External: N2YO · Heavens-Above · Gunter

§ Orbital elements

Epoch: 2026-05-25T01:09:51.937920Z

Period
95.44 min
Inclination
53.2144°
Eccentricity
0.0001153
Mean motion
15.08839870 rev/d
Perigee alt
538.9 km
Apogee alt
540.5 km
Semi-major
6,917.9 km
B*
2.0890e-5
RAAN
161.0993°
Arg perigee
73.3172°
Mean anomaly
286.7946°
Rev number
22,268

§ Raw data

STARLINK-37741 52680U 22053AA  26145.04851780  .00000045  00000+0  20890-4 0  99952 52680  53.2144 161.0993 0001153  73.3172 286.7946 15.08839870222685

JSON: /api/v1/satellites/52680 · /tle

For live sub-satellite position, see the globe view (requires WebGL).

§ Visibility from observer

Set your observer location to see the next 7 days of passes ≥ 10°. The values pass through the URL so the page stays shareable.

No JS? Fill the form by hand. The geolocation button needs JavaScript.